Tracking 30415 objects as of 15-May-2025
HD Live streaming from Space Station
objects crossing your sky now

COSMOS 1304

Track COSMOS 1304 now!
10-day predictions
COSMOS 1304 is classified as:


NORAD ID: 12803
Int'l Code: 1981-087A
Perigee: 911.1 km
Apogee: 975.9 km
Inclination: 82.9 °
Period: 103.8 minutes
Semi major axis: 7314 km
RCS: 1.592 m2 (large)
Launch date: September 4, 1981
Source: Commonwealth of Independent States (former USSR) (CIS)
Launch site: PLESETSK MISSILE AND SPACE COMPLEX (PKMTR)
Your satellite tracking list
Your tracking list is empty




NASA's NSSDC Master Catalog

Two Line Element Set (TLE):
1 12803U 81087A   25134.71513934  .00000086  00000-0  58881-4 0  9994
2 12803  82.9355 346.1465 0044330 279.2486  80.3665 13.87794407587647
Source of the keplerian elements: AFSPC